Weather History for KJAX - November, 2011

Change the Weather History Date:

Monday, November 21, 2011

  Actual Average Record
Temperature  
Mean Temperature 68 °F 61 °F  
Max Temperature 80 °F 72 °F 84 °F (1962)
Min Temperature 55 °F 49 °F 26 °F (1937)
Degree Days  
Heating Degree Days 0 6  
Month to date heating degree days 84 85  
Since 1 July heating degree days 140 113  
Cooling Degree Days 3 2  
Month to date cooling degree days 27 50  
Year to date cooling degree days 2751 2633  
Growing Degree Days 18 (Base 50)    
Moisture  
Dew Point 59 °F    
Average Humidity 76    
Maximum Humidity 100    
Minimum Humidity 51    
Precipitation  
Precipitation 0.00 in 0.06 in 1.16 in (1877)
Month to date precipitation 0.65 1.49  
Year to date precipitation 45.29 48.97  
Snow  
Snow 0.00 in 0.00 in 0.00 in (2001)
Month to date snowfall 0.0 0.0  
Since 1 July snowfall 0.0 0.0  
Since 1 September snowfall 0.0 0.0  
Snow Depth 0.00 in    
Sea Level Pressure  
Sea Level Pressure 30.23 in    
Wind  
Wind Speed 3 mph (ENE)    
Max Wind Speed 12 mph    
Max Gust Speed 15 mph    
Visibility 9 miles    
Events      
T = Trace of Precipitation, MM = Missing Value Source: NWS Daily Summary

Daily Weather History Graph

Daily Weather History Graph

Search for Another Location

Airport or City:

Trip Planner

Search our weather history database for the weather conditions in past years. The results will help you decide how hot, cold, wet, or windy it might be!

Date:

Astronomy

Nov. 21, 2011 Rise Set
Actual Time 6:57 AM EST 5:27 PM EST
Civil Twilight 6:31 AM EST 5:53 PM EST
Nautical Twilight 6:02 AM EST 6:22 PM EST
Astronomical Twilight 5:33 AM EST 6:51 PM EST
Moon 2:48 AM EST (11/21) 2:37 PM EST (11/21)
Length of Visible Light 11h 21m
Length of Day
10h 29m
Waning Crescent, 18% of the Moon is Illuminated
Nov 21
Waning Crescent
Nov 25
New
Dec 2
First Quarter
Dec 10
Full
Dec 17
Last Quarter

Hourly Weather History & Observations

Time (EST) Temp. Heat Index Dew Point Humidity Pressure Visibility Wind Dir Wind Speed Gust Speed Precip Events Conditions
12:56 AM 60.1 °F - 59.0 °F 96% 30.25 in 6.0 mi Calm Calm - N/A   Partly Cloudy
1:56 AM 57.9 °F - 57.0 °F 97% 30.24 in 6.0 mi Calm Calm - N/A   Partly Cloudy
2:56 AM 57.9 °F - 55.9 °F 93% 30.24 in 6.0 mi Calm Calm - N/A   Partly Cloudy
3:56 AM 55.9 °F - 55.0 °F 97% 30.23 in 10.0 mi Calm Calm - N/A   Scattered Clouds
4:47 AM 55.4 °F - 55.4 °F 100% 30.23 in 3.0 mi Calm Calm - N/A   Mostly Cloudy
4:56 AM 55.9 °F - 55.0 °F 97% 30.23 in 5.0 mi Calm Calm - N/A   Mostly Cloudy
5:20 AM 55.4 °F - 53.6 °F 94% 30.24 in 6.0 mi Calm Calm - N/A   Scattered Clouds
5:56 AM 55.9 °F - 54.0 °F 93% 30.25 in 6.0 mi Calm Calm - N/A   Scattered Clouds
6:56 AM 55.0 °F - 54.0 °F 96% 30.27 in 10.0 mi Calm Calm - N/A   Scattered Clouds
7:56 AM 60.1 °F - 59.0 °F 96% 30.29 in 8.0 mi Calm Calm - N/A   Scattered Clouds
8:56 AM 66.9 °F - 64.0 °F 90% 30.30 in 10.0 mi NNE 3.5 mph - N/A   Scattered Clouds
9:56 AM 73.9 °F - 63.0 °F 68% 30.31 in 10.0 mi NNE 3.5 mph - N/A   Scattered Clouds
10:56 AM 78.1 °F - 63.0 °F 60% 30.29 in 10.0 mi Variable 4.6 mph - N/A   Mostly Cloudy
11:56 AM 79.0 °F - 61.0 °F 54% 30.26 in 10.0 mi ENE 6.9 mph - N/A   Mostly Cloudy
12:56 PM 80.1 °F 81.2 °F 62.1 °F 54% 30.22 in 10.0 mi Variable 5.8 mph - N/A   Scattered Clouds
1:56 PM 80.1 °F 81.1 °F 61.0 °F 52% 30.20 in 10.0 mi East 10.4 mph - N/A   Scattered Clouds
2:56 PM 78.1 °F - 61.0 °F 56% 30.19 in 10.0 mi ESE 9.2 mph - N/A   Scattered Clouds
3:56 PM 75.9 °F - 60.1 °F 58% 30.19 in 10.0 mi East 9.2 mph - N/A   Scattered Clouds
4:56 PM 73.4 °F - 60.8 °F 65% 30.19 in 10.0 mi SE 6.9 mph - N/A   Scattered Clouds
5:56 PM 66.2 °F - 60.8 °F 83% 30.20 in 10.0 mi ENE 4.6 mph - N/A   Scattered Clouds
6:56 PM 64.4 °F - 60.8 °F 88% 30.20 in 10.0 mi ENE 3.5 mph - N/A   Partly Cloudy
7:56 PM 64.4 °F - 60.8 °F 88% 30.21 in 10.0 mi Calm Calm - N/A   Partly Cloudy
8:56 PM 64.4 °F - 60.8 °F 88% 30.21 in 10.0 mi Calm Calm - N/A   Partly Cloudy
9:56 PM 61.0 °F - 59.0 °F 93% 30.20 in 10.0 mi Calm Calm - N/A   Clear
10:56 PM 59.0 °F - 57.0 °F 93% 30.19 in 10.0 mi NE 3.5 mph - N/A   Clear
11:56 PM 59.0 °F - 57.0 °F 93% 30.18 in 10.0 mi Calm Calm - N/A   Clear